RH
19 19 20 21 22 24 25 27 27 27 27 28 29 30 30 34 37 38 39 39 38 37 42 44 45 41 42 42 40 33 32 30 29 29 29 28 29 29 29 31 30 29 28 26 26 24 21
17 18 19 20 21 23 25 26 27 28 29 28 30 32 33 35 38 40 40 39 36 36 40 42 44 44 42 44 42 37 33 32 31 31 32 31 31 30 29 29 29 30 29 28 27 25 24
18 17 18 19 20 21 24 27 27 28 27 29 31 33 35 37 39 40 42 41 37 35 39 41 42 46 44 45 44 39 36 34 33 32 33 33 32 33 33 32 32 30 27 25 26 27 26
21 20 20 19 19 20 23 24 26 27 28 30 33 33 35 36 39 41 44 45 39 36 37 40 43 45 47 44 40 41 38 36 34 33 33 33 33 33 32 31 30 28 27 29 30 28 27
21 21 21 22 20 21 21 22 24 28 30 32 32 33 35 37 38 40 45 48 45 38 38 41 45 47 53 46 45 45 41 39 37 36 35 35 35 34 33 32 32 34 34 32 33 29 28
26 24 23 26 23 22 22 23 25 26 28 31 32 33 35 38 38 39 45 50 48 42 40 41 48 49 53 49 48 46 44 42 40 40 39 37 37 37 36 36 37 40 38 32 27 29 26
30 25 26 24 25 25 25 25 26 29 28 30 32 33 35 37 38 40 46 49 55 50 49 50 46 48 48 51 46 44 43 44 43 41 39 38 39 37 37 35 30 27 24 24 23 24 25
42 34 32 28 26 28 27 24 27 27 30 31 33 34 34 35 38 41 48 57 58 56 50 51 47 53 50 46 39 40 39 38 37 36 35 37 38 33 31 27 27 28 29 30 29 29 29
63 57 39 33 31 34 31 28 28 29 29 33 34 34 34 36 41 42 53 58 58 57 57 46 51 53 46 39 39 40 37 35 35 35 34 37 36 35 36 37 37 36 37 35 33 32 32
64 64 54 45 38 38 34 34 32 32 29 33 35 36 35 39 44 50 61 61 60 60 60 50 50 47 38 37 38 35 35 37 34 36 33 35 40 43 39 40 38 37 37 35 33 34 34
83 71 63 58 55 48 42 37 37 40 35 37 41 44 45 46 52 61 65 61 61 64 74 53 50 50 46 39 38 38 38 41 41 41 43 43 43 41 40 41 40 38 35 35 34 34 34
91 93 77 74 68 66 63 57 49 50 53 49 51 54 53 52 51 61 65 62 68 73 81 60 54 50 48 44 40 41 41 42 43 45 45 45 45 42 42 40 39 37 36 34 34 34 37
96 98 97 89 86 79 83 81 78 71 69 71 66 59 58 61 64 68 70 74 82 85 63 61 60 53 51 48 46 43 46 48 49 51 52 50 49 48 43 41 41 40 39 41 40 44 41
94 98 95 96 93 85 89 90 90 93 92 89 89 85 78 76 77 77 78 86 87 73 68 60 62 59 57 56 52 50 49 50 51 55 55 51 52 51 48 45 44 43 45 49 52 50 39
98 97 96 94 93 99 97 96 96 97 99 98 98 93 90 83 87 86 87 86 77 78 73 71 71 67 60 59 58 59 58 58 57 58 60 59 53 53 52 50 47 48 46 48 49 48 46
97 96 95 95 95 97 97 97 97 98 98 99 98 94 89 92 95 97 94 82 82 74 76 77 79 73 69 66 67 69 65 62 62 59 58 57 58 54 51 50 48 52 53 54 54 60 56
96 93 91 92 92 95 97 98 99 99 99 99 99 98 87 97 99 98 86 78 83 77 80 81 81 79 74 72 69 72 72 69 66 64 60 56 54 51 54 57 59 57 55 55 52 53 58
88 89 88 89 90 92 96 98 98 100 99 99 99 99 96 96 99 94 79 79 77 79 78 82 80 80 78 76 76 76 76 77 77 73 69 72 69 67 62 59 58 58 59 58 60 55 58
76 77 84 86 88 93 95 96 97 99 99 99 99 98 99 99 98 89 84 82 80 83 82 80 81 77 78 83 89 84 81 78 82 82 85 84 93 82 61 55 54 54 56 55 54 55 50
63 69 70 76 82 91 96 97 97 98 99 99 99 99 98 98 92 88 87 84 83 80 83 84 83 85 82 86 86 87 87 85 87 89 92 91 92 79 74 67 71 74 68 66 66 64 56
61 59 60 64 73 85 91 96 98 98 99 98 98 97 96 97 90 94 90 80 84 87 87 89 87 86 87 92 93 92 92 93 94 95 96 95 96 87 77 74 73 70 63 66 70 62 69
56 61 62 64 63 68 82 88 93 98 99 98 98 97 98 96 92 94 94 78 84 89 90 90 88 89 91 87 88 96 94 96 95 96 94 95 93 88 80 80 80 77 63 65 62 62 63
53 55 59 61 56 55 59 74 85 92 98 97 97 98 98 96 97 98 84 82 85 92 88 85 89 94 95 85 92 94 95 95 94 96 96 97 96 97 86 84 82 80 61 61 55 57 61
56 56 56 58 57 56 57 59 76 87 92 96 97 98 98 97 97 92 91 92 91 92 92 89 92 94 93 93 98 99 99 98 98 96 92 96 98 98 93 87 93 57 53 53 54 52 54
52 54 58 57 57 56 55 55 60 76 88 88 93 98 98 97 97 95 96 95 94 93 93 95 95 94 96 98 98 98 98 98 96 96 95 94 97 99 97 92 71 58 55 52 52 47 46
50 55 54 55 54 56 55 52 57 65 78 88 90 92 96 97 96 93 96 97 96 96 99 98 98 98 98 98 98 97 96 91 95 90 91 96 96 98 98 95 83 64 55 54 58 56 56
49 54 56 51 52 52 54 52 55 64 72 81 84 91 96 96 95 96 96 94 96 96 97 98 98 98 98 98 98 98 97 92 97 92 93 96 98 96 96 96 83 69 66 58 64 58 53
59 59 54 50 51 48 42 43 58 62 69 81 75 89 93 97 97 97 97 97 97 97 97 97 99 97 98 98 98 98 98 96 94 88 91 92 98 97 98 97 94 69 72 69 70 66 64
64 58 52 51 48 45 36 46 61 65 69 77 80 82 87 88 89 92 97 97 97 98 97 96 97 95 96 98 98 98 98 97 91 96 83 91 83 87 84 81 75 71 74 70 70 69 62